RH
15 13 12 9 12 14 11 11 11 12 14 16 21 36 52 64 69 78 85 87 80 53 41 36 37 36 34 35 34 38 46 51 44 38 39 41 43 45 46 48 53 53 53 53
15 12 8 13 14 14 13 13 12 14 16 18 20 25 43 65 72 73 83 85 63 45 38 38 37 36 37 36 35 38 40 41 37 37 38 39 43 44 47 50 55 55 56 58
15 11 11 16 15 16 15 15 14 15 16 14 18 22 39 48 65 73 70 61 46 40 38 38 36 37 37 37 38 35 37 38 36 42 42 45 48 47 45 45 48 51 50 52
14 10 14 16 15 15 16 13 15 16 18 18 17 22 32 43 54 65 57 50 38 35 32 32 33 36 37 39 39 38 38 38 39 40 41 43 38 42 46 46 47 46 46 42
15 12 17 16 15 14 16 16 16 16 17 18 16 20 23 34 44 51 49 37 34 31 30 30 33 34 33 38 41 41 39 36 40 40 43 42 45 46 43 45 48 48 44 38
14 10 12 12 12 14 15 18 17 17 17 24 19 17 26 30 30 35 38 35 31 29 28 29 31 33 33 36 41 42 40 39 42 43 46 48 54 49 46 47 42 38 34 30
17 14 13 15 17 16 18 19 26 28 28 27 18 18 22 24 24 28 35 32 30 28 29 31 32 32 35 39 43 44 39 41 44 48 50 52 54 53 54 45 43 39 32 30
22 23 14 16 16 19 18 18 26 39 32 26 23 24 32 27 25 24 28 30 28 28 30 31 34 33 34 39 43 42 39 42 46 49 50 50 49 42 40 42 35 33 30 33
19 19 12 12 13 13 18 22 17 27 28 33 24 25 28 27 31 31 30 31 30 28 29 31 32 35 36 40 44 45 41 42 46 48 49 50 48 44 43 42 37 31 33 23
22 27 21 20 17 16 22 17 30 29 44 42 21 22 28 31 34 33 33 33 28 26 28 30 31 37 36 39 44 48 46 46 48 50 49 47 46 44 41 38 36 37 38 35
23 34 31 24 24 22 24 24 24 26 28 44 39 26 21 23 27 33 31 28 28 28 32 32 33 36 39 42 44 51 51 51 52 51 48 50 45 43 39 35 35 35 37 34
25 29 40 28 25 25 18 23 24 46 39 35 48 45 23 24 22 26 27 28 28 30 31 32 35 38 42 43 47 51 53 51 53 50 49 52 48 40 37 35 35 38 34 33
30 32 53 46 34 24 26 25 24 27 33 42 65 40 22 23 23 22 24 25 27 30 30 33 36 40 43 46 48 48 52 50 52 47 51 51 46 39 37 36 35 34 32 31
54 34 36 50 38 30 34 32 27 29 56 44 37 29 26 25 26 25 25 23 25 30 32 34 38 41 43 45 46 46 51 57 48 45 46 46 42 35 35 36 34 34 32 32
36 41 36 37 35 32 34 32 30 31 30 44 34 30 22 21 22 23 22 22 21 27 32 34 38 40 42 46 47 45 51 54 51 42 38 39 39 34 32 36 34 33 34 31
36 49 41 99 36 32 35 30 31 30 29 29 28 30 21 20 21 24 22 21 24 26 31 33 36 38 42 46 47 46 48 56 44 36 35 34 36 32 35 36 36 35 35 33
42 48 50 55 39 38 49 38 32 28 25 29 36 28 22 21 19 20 20 20 23 27 29 33 36 38 42 46 46 47 49 44 39 35 32 32 34 33 34 34 32 33 36 37
45 44 51 66 48 80 31 27 26 31 27 25 26 23 20 23 25 22 22 23 24 24 29 32 35 38 40 42 44 46 42 39 40 36 33 31 33 32 30 33 32 35 35 36
38 44 70 68 53 32 27 29 32 34 31 23 24 24 24 24 29 27 29 29 30 30 29 32 35 39 39 41 43 41 40 37 39 37 35 32 32 31 30 33 34 32 33 34
44 50 66 74 62 51 31 27 23 25 38 22 26 29 26 24 49 31 35 38 39 37 33 33 35 37 41 43 41 40 38 38 38 39 38 33 34 32 31 34 34 33 33 32
68 74 92 74 90 53 26 24 27 48 43 27 24 25 28 33 28 29 32 34 38 39 34 34 35 37 39 39 39 40 38 39 35 36 37 35 33 36 32 35 35 34 33 32
56 66 74 67 98 85 29 28 43 35 33 28 27 25 30 30 27 27 27 30 34 35 30 30 33 34 36 35 37 37 37 34 32 32 35 36 35 30 27 35 34 33 32 36
60 46 59 51 52 36 30 32 30 29 31 26 26 24 28 29 28 26 26 25 28 29 25 26 28 32 34 33 33 36 34 30 32 33 34 35 35 33 29 31 36 34 32 38
39 34 46 45 36 37 32 27 28 28 30 27 24 24 25 29 28 28 26 25 24 25 24 22 26 29 33 32 32 32 30 28 30 34 34 33 35 36 33 32 31 33 42 49
36 37 46 49 36 32 32 30 29 27 24 23 24 25 26 28 27 27 26 25 24 23 24 23 24 27 27 29 31 30 29 29 30 33 33 33 33 35 34 31 33 34 38 50
32 38 63 61 38 40 35 27 24 25 26 26 24 24 22 22 25 24 26 25 25 26 26 25 26 27 27 26 29 29 32 30 32 38 35 34 34 35 36 38 42 54 61 63
Wind_Speed
7 9 11 12 1 10 8 8 7 9 4 7 1 14 12 10 12 13 12 11 12 14 14 13 13 13 14 13 13 12 11 11 8 7 7 6 5 6 6 7 8 9 9 10
6 13 9 2 4 7 8 8 7 7 1 8 8 9 13 12 10 12 14 13 15 16 16 14 13 13 13 13 12 11 11 9 6 5 5 5 5 6 7 7 8 9 10 11
15 7 6 8 8 10 10 11 7 8 8 11 6 12 15 17 13 12 13 18 18 17 17 16 15 14 13 13 12 10 9 9 6 8 7 6 5 6 6 6 6 8 10 10
12 8 10 13 11 10 12 9 4 5 9 10 12 8 16 18 17 15 18 19 18 17 17 17 16 15 14 13 11 10 9 9 9 8 6 5 3 5 5 5 6 7 8 9
14 12 12 14 13 9 2 2 7 9 10 13 12 8 12 18 17 18 19 19 18 19 18 17 17 15 14 13 11 10 9 9 8 6 5 4 4 5 4 4 5 4 6 8
20 3 11 15 12 7 2 7 8 9 10 11 15 12 12 14 12 17 19 18 18 18 18 17 16 14 13 12 10 10 10 9 8 7 6 4 5 4 3 2 2 3 4 5
17 16 14 7 10 10 11 12 8 10 10 10 6 4 6 11 3 15 18 19 19 19 18 16 16 15 14 14 12 10 10 9 8 7 7 6 5 5 5 1 3 4 4 4
18 18 20 15 17 12 15 15 9 9 5 6 7 9 8 5 6 6 18 18 19 20 16 16 15 15 14 14 13 11 11 10 9 8 7 7 6 4 4 4 3 4 3 4
13 15 13 9 17 18 13 15 12 10 5 7 5 7 8 7 8 8 15 17 19 20 19 17 16 15 14 14 14 12 11 10 9 8 6 7 5 4 5 4 2 3 2 3
6 8 10 10 8 10 12 10 7 7 7 10 9 6 7 10 10 10 13 16 19 19 18 16 14 13 13 13 13 12 11 10 10 9 7 7 7 5 5 3 3 3 3 2
9 7 8 11 12 13 10 12 10 5 7 4 4 6 8 10 9 10 12 15 16 18 16 15 13 12 13 13 13 12 11 11 10 9 8 7 7 6 5 4 4 3 2 2
5 6 10 13 6 7 12 10 15 5 7 6 4 6 4 3 1 10 10 13 15 16 17 15 13 13 13 14 13 13 12 11 9 8 7 7 7 6 5 4 4 3 1 0
6 6 7 6 7 6 8 8 8 5 3 8 7 3 5 7 6 3 6 9 13 16 17 16 15 14 13 14 14 13 12 11 9 8 9 8 7 6 6 5 4 4 2 2
1 5 8 5 4 7 16 8 8 10 7 10 11 11 8 10 7 7 8 8 11 14 15 16 15 15 14 15 14 14 13 10 12 10 9 9 8 7 6 5 5 4 2 3
5 8 4 6 0 4 2 5 9 12 11 12 11 13 10 10 13 8 7 10 11 13 16 17 16 14 15 15 14 14 14 13 12 12 12 10 8 7 6 6 5 4 4 4
4 3 4 3 2 4 8 11 11 14 14 15 13 15 13 6 6 7 9 9 11 11 14 17 17 17 16 16 15 15 15 12 13 12 11 10 9 8 7 6 5 5 5 6
6 5 6 9 6 5 10 15 18 18 16 13 15 11 9 10 11 11 10 10 10 10 13 16 18 17 16 17 16 16 16 14 13 13 11 11 10 9 8 7 6 6 6 5
7 9 4 5 5 7 3 2 5 7 10 8 6 9 7 10 10 11 11 12 11 10 11 13 14 16 17 17 16 15 14 14 13 13 12 11 10 9 8 8 7 7 6 6
7 7 3 4 9 9 7 9 5 6 8 7 5 2 4 5 9 1 3 6 9 10 8 10 12 14 15 16 15 16 14 14 14 13 12 11 11 10 9 9 8 7 6 6
6 7 7 5 5 6 3 6 5 1 10 7 6 4 1 5 4 4 8 5 6 6 6 7 10 12 14 14 17 16 16 15 15 13 12 11 11 10 10 9 8 6 6 6
8 6 8 8 4 6 2 10 3 3 1 8 8 5 2 5 7 9 7 5 4 4 5 7 10 12 13 15 16 17 15 16 14 13 12 12 11 10 9 8 7 7 7 6
13 10 8 9 6 10 13 14 7 4 5 6 6 6 4 8 10 9 8 7 6 7 8 10 10 11 13 15 15 16 16 14 13 14 14 13 12 10 8 8 8 7 7 7
11 9 8 9 8 3 12 7 13 6 6 6 7 9 11 13 11 13 10 9 10 11 10 11 11 12 12 14 15 16 15 15 15 14 14 13 12 11 9 9 8 7 8 6
14 10 9 7 8 7 8 11 6 6 7 9 12 15 15 16 13 14 15 12 10 12 13 11 12 13 14 14 15 15 14 15 16 16 15 13 13 11 10 8 6 7 6 6
9 10 10 12 11 5 7 9 9 12 14 15 15 15 14 16 16 15 15 15 12 12 12 12 12 13 14 13 14 14 15 16 16 15 14 13 11 12 10 10 8 7 7 4
10 12 9 7 9 11 12 11 12 12 11 12 15 16 17 17 17 17 15 15 12 13 12 12 12 12 13 13 14 15 15 16 16 13 12 11 10 10 9 8 7 5 3 4
Wind_Direction
198 260 234 270 217 330 309 289 249 100 79 283 292 141 137 151 151 158 154 151 153 162 136 144 134 132 127 127 136 138 135 141 143 145 131 136 114 107 90 78 67 59 45 40
222 240 253 60 232 249 250 241 220 94 200 271 171 147 143 153 154 164 155 152 172 153 154 145 149 142 145 141 141 147 154 149 144 144 106 96 100 86 89 83 69 55 48 37
252 349 107 209 210 233 232 246 230 258 169 241 242 191 156 152 147 152 164 177 178 163 158 158 157 157 152 152 157 160 151 149 143 123 123 114 132 157 134 107 79 56 49 41
255 224 207 216 241 227 245 212 294 208 237 256 182 294 185 165 168 176 184 183 171 167 163 162 162 162 165 160 163 157 151 144 149 171 148 192 88 92 83 87 83 81 48 44
236 208 208 221 229 208 304 156 228 243 245 274 233 248 130 167 173 176 192 177 176 169 168 167 166 169 167 163 167 157 161 156 156 156 151 168 101 138 112 104 108 93 89 51
257 204 212 226 224 222 169 218 226 244 253 249 244 243 160 177 189 176 183 182 175 171 169 167 168 167 163 167 161 162 167 159 156 154 150 130 136 124 129 79 102 67 60 59
226 221 227 247 198 191 211 220 219 212 216 238 79 246 55 112 168 174 179 182 176 178 175 173 172 178 166 168 168 172 173 160 158 157 149 140 126 105 121 147 49 7 42 42
220 229 209 189 228 188 213 220 234 237 256 175 148 222 96 108 145 199 172 182 178 178 182 183 177 187 175 174 175 181 174 166 160 157 141 133 141 132 115 55 51 57 57 47
250 222 180 216 210 241 215 223 243 283 276 290 217 121 146 135 135 176 170 182 184 187 185 192 187 189 179 181 184 185 179 167 163 157 151 138 131 123 93 97 92 87 53 100
264 176 183 173 226 221 267 202 202 238 250 232 217 253 115 158 157 179 177 193 189 194 193 193 195 187 186 182 178 182 185 167 163 162 162 153 137 138 128 130 98 91 107 45
278 152 167 178 209 180 196 219 221 259 239 249 267 96 67 125 164 184 193 197 202 197 200 199 193 194 199 181 174 182 182 169 168 170 165 153 147 146 157 155 149 133 128 17
215 261 180 202 87 308 196 203 202 220 213 221 311 283 80 104 276 170 194 203 205 209 204 199 195 194 193 183 178 180 180 171 171 169 168 168 156 164 171 169 161 164 196 311
157 236 147 192 184 198 229 212 229 211 292 218 208 253 146 138 156 210 226 210 209 211 205 194 195 191 192 185 182 176 175 170 164 183 173 176 174 180 186 175 177 185 242 276
268 246 209 276 359 232 208 201 223 225 215 238 251 244 210 198 207 225 219 247 229 207 209 200 198 194 193 191 179 176 174 157 170 179 194 186 185 185 186 184 191 198 244 275
252 224 256 135 122 340 246 225 210 242 244 245 252 271 279 316 314 313 299 290 266 212 202 206 203 199 195 186 186 173 182 173 173 184 190 185 189 188 180 190 198 214 254 276
183 198 180 298 242 266 261 251 248 252 257 266 268 271 282 302 317 290 281 263 267 247 209 212 204 201 196 190 187 193 180 179 186 189 189 181 183 190 193 202 210 224 240 242
200 177 211 242 208 258 263 244 247 251 244 248 260 284 346 302 289 279 268 255 247 249 233 213 206 203 194 190 195 188 190 183 187 191 187 185 188 196 198 208 215 230 240 252
197 210 178 245 164 238 243 292 310 296 287 268 270 268 317 327 313 294 288 281 272 261 231 216 205 201 197 190 190 196 188 184 190 193 191 186 192 199 204 211 222 232 240 244
231 203 189 206 221 265 241 197 204 212 247 205 244 296 308 337 297 301 15 298 281 274 240 218 198 198 197 188 180 197 189 189 192 197 195 192 195 202 206 215 226 231 238 247
172 266 178 191 223 229 95 112 157 158 258 202 148 185 30 332 336 39 13 344 294 273 244 200 186 184 195 174 193 189 195 195 199 199 197 194 195 206 211 216 226 232 240 254
182 194 213 213 238 270 207 152 134 235 167 154 173 171 224 299 328 334 323 294 271 246 207 178 182 188 187 182 189 199 199 204 199 193 196 196 195 204 213 212 217 229 236 241
186 191 201 219 203 244 210 159 210 106 138 177 203 235 275 300 305 298 290 286 220 214 196 192 188 187 186 187 192 201 208 199 196 192 193 195 196 200 203 209 216 220 236 242
205 205 199 199 209 150 166 176 216 270 264 202 260 287 297 295 282 292 286 273 246 221 213 200 201 194 193 197 196 207 205 195 191 193 193 194 197 197 196 211 216 226 231 237
215 264 248 226 211 191 198 226 180 203 238 268 281 289 292 288 280 282 284 269 257 239 231 214 218 207 205 202 204 209 203 194 190 193 194 194 196 196 200 204 223 221 227 236
232 201 229 244 239 217 240 238 249 259 274 281 281 278 276 277 279 280 276 269 270 259 243 233 218 228 221 201 207 207 207 192 191 192 199 200 192 190 208 206 208 210 225 237
219 222 217 248 247 251 256 266 270 273 277 275 279 285 288 284 282 278 272 277 272 272 246 244 232 230 234 214 206 206 210 195 189 192 195 190 196 185 209 215 194 139 113 123